When you browse on this site, cookies collect data to enhance your experience and personalize the content and advertising you see.
Visit our Privacy Policy to learn more. By continuing to use the site, you agree to this use of cookies and data.
  • en Suisse
  • Liste des pays
  • À 7 jours
  • Température de l'eau
  • Carte satellitaire
  • Carte météo
  • Widgets météo
  • user-avatar
    Se connecter

    Météo par heure à Adélaïde

    Ce jour, 25 Mai, Samedi

    Heure Température Précipitation Vent Pression Humidité
    00:00 +14°C° 0 mm 3 m/s 759 mmHg 84%
    01:00 +14°C° 0 mm 3 m/s 758 mmHg 84%
    02:00 +14°C° 0 mm 4 m/s 758 mmHg 83%
    03:00 +14°C° 0 mm 4 m/s 758 mmHg 84%
    04:00 +14°C° 0.2 mm 4 m/s 758 mmHg 84%
    05:00 +14°C° 0.2 mm 4 m/s 758 mmHg 85%
    06:00 +14°C° 0.2 mm 5 m/s 758 mmHg 86%
    07:00 +15°C° 0.6 mm 5 m/s 758 mmHg 85%
    08:00 +15°C° 0.6 mm 6 m/s 758 mmHg 83%
    09:00 +15°C° 0.6 mm 6 m/s 758 mmHg 82%
    10:00 +16°C° 0.9 mm 6 m/s 758 mmHg 80%
    11:00 +16°C° 0.9 mm 6 m/s 757 mmHg 79%
    12:00 +16°C° 0.9 mm 6 m/s 757 mmHg 77%
    13:00 +16°C° 0.4 mm 6 m/s 757 mmHg 75%
    14:00 +16°C° 0.4 mm 6 m/s 757 mmHg 72%
    15:00 +16°C° 0.4 mm 6 m/s 757 mmHg 70%
    16:00 +15°C° 0.1 mm 6 m/s 757 mmHg 70%
    17:00 +14°C° 0.1 mm 6 m/s 758 mmHg 70%
    18:00 +14°C° 0.1 mm 6 m/s 758 mmHg 71%
    19:00 +13°C° 0.1 mm 5 m/s 759 mmHg 71%
    20:00 +13°C° 0.1 mm 5 m/s 759 mmHg 72%
    21:00 +13°C° 0.1 mm 5 m/s 759 mmHg 73%
    22:00 +12°C° 0 mm 5 m/s 760 mmHg 73%
    23:00 +12°C° 0 mm 4 m/s 760 mmHg 72%

    Demain, 26 Mai, Dimanche

    Heure Température Précipitation Vent Pression Humidité
    00:00 +12°C° 0 mm 4 m/s 760 mmHg 71%
    01:00 +12°C° 0 mm 4 m/s 760 mmHg 71%
    02:00 +12°C° 0 mm 4 m/s 760 mmHg 71%
    03:00 +12°C° 0 mm 4 m/s 760 mmHg 71%
    04:00 +12°C° 0 mm 4 m/s 760 mmHg 72%
    05:00 +12°C° 0 mm 4 m/s 760 mmHg 73%
    06:00 +12°C° 0 mm 4 m/s 760 mmHg 73%
    07:00 +13°C° 0 mm 5 m/s 760 mmHg 71%
    08:00 +14°C° 0 mm 5 m/s 760 mmHg 69%
    09:00 +14°C° 0 mm 6 m/s 760 mmHg 66%
    10:00 +14°C° 0.1 mm 6 m/s 760 mmHg 67%
    11:00 +15°C° 0.1 mm 7 m/s 759 mmHg 67%
    12:00 +15°C° 0.1 mm 7 m/s 759 mmHg 68%
    13:00 +15°C° 0.2 mm 7 m/s 758 mmHg 69%
    14:00 +15°C° 0.2 mm 7 m/s 758 mmHg 70%
    15:00 +15°C° 0.2 mm 8 m/s 757 mmHg 71%
    16:00 +15°C° 0.3 mm 8 m/s 757 mmHg 72%
    17:00 +15°C° 0.3 mm 8 m/s 757 mmHg 72%
    18:00 +13°C° 0.3 mm 8 m/s 758 mmHg 73%
    19:00 +13°C° 0.4 mm 8 m/s 758 mmHg 73%
    20:00 +13°C° 0.4 mm 8 m/s 758 mmHg 73%
    21:00 +13°C° 0.4 mm 8 m/s 758 mmHg 73%
    22:00 +12°C° 0.1 mm 8 m/s 759 mmHg 72%
    23:00 +12°C° 0.1 mm 8 m/s 759 mmHg 70%

    Après-demain, 27 Mai, Lundi

    Heure Température Précipitation Vent Pression Humidité
    00:00 +11°C° 0.1 mm 7 m/s 759 mmHg 69%
    01:00 +11°C° 0 mm 7 m/s 759 mmHg 69%
    02:00 +10°C° 0 mm 7 m/s 759 mmHg 68%
    03:00 +10°C° 0 mm 6 m/s 760 mmHg 68%
    04:00 +10°C° 0 mm 6 m/s 760 mmHg 68%
    05:00 +10°C° 0 mm 6 m/s 760 mmHg 67%
    06:00 +10°C° 0 mm 6 m/s 760 mmHg 67%
    07:00 +11°C° 0 mm 6 m/s 761 mmHg 65%
    08:00 +11°C° 0 mm 6 m/s 761 mmHg 62%
    09:00 +12°C° 0 mm 7 m/s 762 mmHg 60%
    10:00 +13°C° 0 mm 6 m/s 762 mmHg 60%
    11:00 +13°C° 0 mm 6 m/s 762 mmHg 61%
    12:00 +13°C° 0 mm 5 m/s 762 mmHg 61%
    13:00 +13°C° 0 mm 5 m/s 762 mmHg 63%
    14:00 +13°C° 0 mm 5 m/s 761 mmHg 65%
    15:00 +13°C° 0 mm 5 m/s 761 mmHg 66%
    16:00 +12°C° 0 mm 4 m/s 761 mmHg 68%
    17:00 +12°C° 0 mm 4 m/s 762 mmHg 70%
    18:00 +12°C° 0 mm 4 m/s 762 mmHg 72%
    19:00 +12°C° 0.1 mm 4 m/s 762 mmHg 73%
    20:00 +12°C° 0.1 mm 4 m/s 762 mmHg 74%
    21:00 +12°C° 0.1 mm 4 m/s 762 mmHg 74%
    22:00 +12°C° 0.1 mm 4 m/s 762 mmHg 76%
    23:00 +12°C° 0.1 mm 4 m/s 761 mmHg 77%

    28 Mai, Mardi

    Heure Température Précipitation Vent Pression Humidité
    00:00 +12°C° 0.1 mm 5 m/s 761 mmHg 79%
    01:00 +13°C° 0.2 mm 5 m/s 760 mmHg 79%
    02:00 +13°C° 0.2 mm 5 m/s 760 mmHg 79%
    03:00 +13°C° 0.2 mm 5 m/s 760 mmHg 79%
    04:00 +13°C° 0.2 mm 5 m/s 760 mmHg 79%
    05:00 +13°C° 0.2 mm 6 m/s 760 mmHg 79%
    06:00 +13°C° 0.2 mm 6 m/s 760 mmHg 79%
    07:00 +14°C° 0.2 mm 6 m/s 760 mmHg 76%
    08:00 +14°C° 0.2 mm 6 m/s 760 mmHg 73%
    09:00 +15°C° 0.2 mm 6 m/s 760 mmHg 70%
    10:00 +15°C° 0.2 mm 7 m/s 759 mmHg 69%
    11:00 +15°C° 0.2 mm 7 m/s 759 mmHg 68%
    12:00 +15°C° 0.2 mm 7 m/s 758 mmHg 67%
    13:00 +15°C° 0.2 mm 7 m/s 758 mmHg 68%
    14:00 +15°C° 0.2 mm 7 m/s 757 mmHg 69%
    15:00 +15°C° 0.2 mm 7 m/s 757 mmHg 70%
    16:00 +14°C° 0.1 mm 7 m/s 757 mmHg 71%
    17:00 +14°C° 0.1 mm 7 m/s 757 mmHg 73%
    18:00 +14°C° 0.1 mm 7 m/s 757 mmHg 75%
    19:00 +14°C° 0.1 mm 7 m/s 757 mmHg 73%
    20:00 +13°C° 0.1 mm 8 m/s 757 mmHg 72%
    21:00 +13°C° 0.1 mm 8 m/s 757 mmHg 71%
    22:00 +13°C° 0.1 mm 8 m/s 757 mmHg 71%
    23:00 +12°C° 0.1 mm 8 m/s 757 mmHg 71%

    29 Mai, Mercredi

    Heure Température Précipitation Vent Pression Humidité
    00:00 +12°C° 0.1 mm 9 m/s 756 mmHg 72%
    01:00 +12°C° 0.1 mm 8 m/s 756 mmHg 71%
    02:00 +11°C° 0.1 mm 8 m/s 756 mmHg 70%
    03:00 +11°C° 0.1 mm 8 m/s 756 mmHg 69%
    04:00 +11°C° 0.1 mm 8 m/s 756 mmHg 69%
    05:00 +11°C° 0.1 mm 8 m/s 757 mmHg 69%
    06:00 +10°C° 0.1 mm 8 m/s 757 mmHg 69%
    07:00 +10°C° 0.1 mm 8 m/s 757 mmHg 68%
    08:00 +10°C° 0.1 mm 8 m/s 758 mmHg 67%
    09:00 +10°C° 0.1 mm 8 m/s 758 mmHg 66%
    10:00 +10°C° 0.2 mm 8 m/s 758 mmHg 65%
    11:00 +10°C° 0.2 mm 8 m/s 758 mmHg 64%
    12:00 +10°C° 0.2 mm 8 m/s 758 mmHg 62%
    13:00 +10°C° 0.2 mm 8 m/s 759 mmHg 61%
    14:00 +10°C° 0.2 mm 8 m/s 759 mmHg 60%
    15:00 +10°C° 0.2 mm 8 m/s 759 mmHg 59%
    16:00 +10°C° 0.1 mm 7 m/s 759 mmHg 61%
    17:00 +9°C° 0.1 mm 6 m/s 760 mmHg 63%
    18:00 +9°C° 0.1 mm 5 m/s 761 mmHg 65%
    19:00 +9°C° 0 mm 5 m/s 761 mmHg 66%
    20:00 +9°C° 0 mm 5 m/s 762 mmHg 68%
    21:00 +9°C° 0 mm 5 m/s 763 mmHg 70%
    22:00 +9°C° 0 mm 5 m/s 763 mmHg 71%
    23:00 +10°C° 0 mm 4 m/s 763 mmHg 71%

    30 Mai, Jeudi

    Heure Température Précipitation Vent Pression Humidité
    00:00 +10°C° 0 mm 4 m/s 764 mmHg 71%
    01:00 +10°C° 0.1 mm 4 m/s 764 mmHg 71%
    02:00 +10°C° 0.1 mm 4 m/s 764 mmHg 70%
    03:00 +10°C° 0.1 mm 4 m/s 765 mmHg 70%
    04:00 +10°C° 0.1 mm 4 m/s 765 mmHg 72%
    05:00 +10°C° 0.1 mm 4 m/s 766 mmHg 74%
    06:00 +10°C° 0.1 mm 3 m/s 766 mmHg 75%
    07:00 +11°C° 0 mm 4 m/s 767 mmHg 71%
    08:00 +11°C° 0 mm 4 m/s 768 mmHg 66%
    09:00 +12°C° 0 mm 4 m/s 768 mmHg 62%
    10:00 +13°C° 0 mm 4 m/s 768 mmHg 58%
    11:00 +13°C° 0 mm 4 m/s 769 mmHg 54%
    12:00 +14°C° 0 mm 4 m/s 769 mmHg 51%
    13:00 +14°C° 0 mm 4 m/s 769 mmHg 52%
    14:00 +13°C° 0 mm 4 m/s 769 mmHg 54%
    15:00 +13°C° 0 mm 4 m/s 769 mmHg 55%
    16:00 +12°C° 0 mm 3 m/s 769 mmHg 60%
    17:00 +11°C° 0 mm 3 m/s 770 mmHg 65%
    18:00 +10°C° 0 mm 3 m/s 770 mmHg 70%
    19:00 +10°C° 0 mm 3 m/s 770 mmHg 72%
    20:00 +9°C° 0 mm 2 m/s 771 mmHg 73%
    21:00 +9°C° 0 mm 2 m/s 771 mmHg 74%
    22:00 +9°C° 0 mm 2 m/s 771 mmHg 75%
    23:00 +8°C° 0 mm 2 m/s 771 mmHg 76%
    Voir plus